Time,TemperatureF,DewpointF,PressureIn,WindDirection,WindDirectionDegrees,WindSpeedMPH,WindSpeedGustMPH,Humidity,HourlyPrecipIn,Conditions,Clouds,dailyrainin,SoftwareType,DateUTC
2013-03-19 00:03:00,27.2,24.0,30.24,SE,146,2.0,5.0,86,0.00,,,0.00,weatherlink.com 1.10,2013-03-19 04:03:00,
2013-03-19 00:18:00,26.6,24.0,30.23,ESE,102,2.0,3.0,89,0.00,,,0.00,weatherlink.com 1.10,2013-03-19 04:18:00,
2013-03-19 00:33:00,26.5,24.0,30.21,SE,131,3.0,4.0,90,0.00,,,0.00,weatherlink.com 1.10,2013-03-19 04:33:00,
2013-03-19 00:48:00,26.5,24.0,30.20,ESE,112,2.0,2.0,91,0.00,,,0.00,weatherlink.com 1.10,2013-03-19 04:48:00,
2013-03-19 01:03:00,26.5,24.0,30.18,ESE,103,2.0,3.0,91,0.00,,,0.00,weatherlink.com 1.10,2013-03-19 05:03:00,
2013-03-19 01:18:00,26.4,24.0,30.18,ESE,104,2.0,3.0,92,0.00,,,0.00,weatherlink.com 1.10,2013-03-19 05:18:00,
2013-03-19 01:34:00,26.3,24.0,30.17,SE,134,1.0,4.0,92,0.00,,,0.00,weatherlink.com 1.10,2013-03-19 05:34:00,
2013-03-19 01:49:00,26.2,25.0,30.16,SSE,152,2.0,3.0,93,0.00,,,0.00,weatherlink.com 1.10,2013-03-19 05:49:00,
2013-03-19 02:04:00,26.2,25.0,30.15,ESE,117,1.0,3.0,94,0.00,,,0.00,weatherlink.com 1.10,2013-03-19 06:04:00,
2013-03-19 02:19:00,26.2,25.0,30.14,ESE,106,1.0,2.0,94,0.00,,,0.00,weatherlink.com 1.10,2013-03-19 06:19:00,
2013-03-19 02:34:00,26.2,25.0,30.12,ESE,110,1.0,1.0,95,0.00,,,0.00,weatherlink.com 1.10,2013-03-19 06:34:00,
2013-03-19 02:49:00,26.2,25.0,30.11,East,94,1.0,2.0,95,0.00,,,0.00,weatherlink.com 1.10,2013-03-19 06:49:00,
2013-03-19 03:04:00,26.3,25.0,30.11,ESE,113,1.0,3.0,95,0.00,,,0.00,weatherlink.com 1.10,2013-03-19 07:04:00,
2013-03-19 03:19:00,26.2,25.0,30.11,East,98,1.0,3.0,95,0.00,,,0.00,weatherlink.com 1.10,2013-03-19 07:19:00,
2013-03-19 03:34:00,26.2,25.0,30.11,ESE,113,2.0,2.0,95,0.00,,,0.00,weatherlink.com 1.10,2013-03-19 07:34:00,
2013-03-19 03:49:00,26.2,25.0,30.10,ESE,114,2.0,2.0,95,0.00,,,0.00,weatherlink.com 1.10,2013-03-19 07:49:00,
2013-03-19 04:04:00,26.2,25.0,30.10,East,99,1.0,2.0,95,0.00,,,0.00,weatherlink.com 1.10,2013-03-19 08:04:00,
2013-03-19 04:19:00,26.2,25.0,30.09,SSE,152,1.0,2.0,96,0.00,,,0.00,weatherlink.com 1.10,2013-03-19 08:19:00,
2013-03-19 04:34:00,26.4,25.0,30.09,ESE,122,2.0,3.0,96,0.00,,,0.00,weatherlink.com 1.10,2013-03-19 08:34:00,
2013-03-19 04:49:00,26.5,26.0,30.09,ESE,102,1.0,4.0,96,0.00,,,0.00,weatherlink.com 1.10,2013-03-19 08:49:00,
2013-03-19 05:04:00,26.5,26.0,30.07,East,86,1.0,4.0,96,0.00,,,0.00,weatherlink.com 1.10,2013-03-19 09:04:00,
2013-03-19 05:19:00,26.6,26.0,30.06,ESE,102,1.0,4.0,96,0.00,,,0.00,weatherlink.com 1.10,2013-03-19 09:19:00,
2013-03-19 05:34:00,26.7,26.0,30.06,East,101,2.0,4.0,96,0.00,,,0.00,weatherlink.com 1.10,2013-03-19 09:34:00,
2013-03-19 05:49:00,26.9,26.0,30.07,ESE,105,2.0,5.0,96,0.00,,,0.00,weatherlink.com 1.10,2013-03-19 09:49:00,
2013-03-19 06:04:00,27.1,26.0,30.06,SE,124,3.0,5.0,96,0.00,,,0.00,weatherlink.com 1.10,2013-03-19 10:04:00,
2013-03-19 06:19:00,27.2,26.0,30.07,ESE,123,3.0,4.0,96,0.00,,,0.00,weatherlink.com 1.10,2013-03-19 10:19:00,
2013-03-19 06:34:00,27.3,26.0,30.06,ESE,111,4.0,5.0,96,0.00,,,0.00,weatherlink.com 1.10,2013-03-19 10:34:00,
2013-03-19 06:49:00,27.4,26.0,30.05,East,93,2.0,6.0,96,0.00,,,0.00,weatherlink.com 1.10,2013-03-19 10:49:00,
2013-03-19 07:19:00,27.3,26.0,30.03,East,95,2.0,4.0,96,0.00,,,0.00,weatherlink.com 1.10,2013-03-19 11:19:00,
2013-03-19 07:34:00,27.5,27.0,30.02,East,92,4.0,5.0,96,0.00,,,0.00,weatherlink.com 1.10,2013-03-19 11:34:00,
2013-03-19 07:49:00,27.7,27.0,30.02,ESE,110,6.0,6.0,96,0.00,,,0.00,weatherlink.com 1.10,2013-03-19 11:49:00,
2013-03-19 08:04:00,27.9,27.0,30.01,SE,129,3.0,6.0,96,0.00,,,0.00,weatherlink.com 1.10,2013-03-19 12:04:00,
2013-03-19 08:20:00,28.2,27.0,30.00,ESE,123,3.0,5.0,96,0.00,,,0.00,weatherlink.com 1.10,2013-03-19 12:20:00,
2013-03-19 08:35:00,28.4,27.0,29.99,ESE,121,2.0,5.0,96,0.00,,,0.00,weatherlink.com 1.10,2013-03-19 12:35:00,
2013-03-19 08:50:00,28.6,28.0,29.98,ESE,102,2.0,5.0,96,0.00,,,0.00,weatherlink.com 1.10,2013-03-19 12:50:00,
2013-03-19 09:05:00,28.8,28.0,29.98,East,82,2.0,7.0,96,0.00,,,0.00,weatherlink.com 1.10,2013-03-19 13:05:00,
2013-03-19 09:20:00,29.0,28.0,29.97,ESE,111,2.0,6.0,96,0.00,,,0.00,weatherlink.com 1.10,2013-03-19 13:20:00,
2013-03-19 09:35:00,29.1,28.0,29.96,East,90,3.0,9.0,96,0.00,,,0.00,weatherlink.com 1.10,2013-03-19 13:35:00,
2013-03-19 09:50:00,29.1,28.0,29.96,East,94,5.0,7.0,96,0.00,,,0.00,weatherlink.com 1.10,2013-03-19 13:50:00,
2013-03-19 10:05:00,29.2,28.0,29.95,East,86,4.0,8.0,96,0.00,,,0.00,weatherlink.com 1.10,2013-03-19 14:05:00,
2013-03-19 10:20:00,29.2,28.0,29.95,East,91,4.0,7.0,96,0.00,,,0.00,weatherlink.com 1.10,2013-03-19 14:20:00,
2013-03-19 10:35:00,29.2,28.0,29.94,ESE,105,4.0,6.0,96,0.00,,,0.00,weatherlink.com 1.10,2013-03-19 14:35:00,
2013-03-19 10:50:00,29.3,28.0,29.93,ESE,112,4.0,5.0,96,0.00,,,0.00,weatherlink.com 1.10,2013-03-19 14:50:00,
2013-03-19 11:05:00,29.4,29.0,29.91,SE,126,5.0,6.0,97,0.00,,,0.00,weatherlink.com 1.10,2013-03-19 15:05:00,
2013-03-19 11:20:00,29.8,29.0,29.91,ESE,108,3.0,7.0,97,0.00,,,0.00,weatherlink.com 1.10,2013-03-19 15:20:00,
2013-03-19 11:35:00,30.3,30.0,29.90,ESE,105,0.0,5.0,97,0.00,,,0.00,weatherlink.com 1.10,2013-03-19 15:35:00,
2013-03-19 11:50:00,30.4,29.0,29.89,East,101,3.0,10.0,96,0.00,,,0.00,weatherlink.com 1.10,2013-03-19 15:50:00,
2013-03-19 12:05:00,30.2,29.0,29.88,ESE,112,7.0,12.0,96,0.00,,,0.00,weatherlink.com 1.10,2013-03-19 16:05:00,
2013-03-19 12:20:00,30.3,29.0,29.87,SSE,150,4.0,9.0,95,0.00,,,0.00,weatherlink.com 1.10,2013-03-19 16:20:00,
2013-03-19 12:35:00,30.6,30.0,29.84,ESE,107,7.0,10.0,96,0.00,,,0.00,weatherlink.com 1.10,2013-03-19 16:35:00,
2013-03-19 12:50:00,30.5,30.0,29.85,ESE,110,4.0,8.0,96,0.00,,,0.00,weatherlink.com 1.10,2013-03-19 16:50:00,
2013-03-19 13:05:00,30.5,29.0,29.84,East,95,3.0,10.0,95,0.00,,,0.00,weatherlink.com 1.10,2013-03-19 17:05:00,
2013-03-19 13:20:00,30.6,30.0,29.83,East,82,4.0,6.0,96,0.00,,,0.00,weatherlink.com 1.10,2013-03-19 17:20:00,
2013-03-19 13:35:00,30.6,30.0,29.82,ESE,106,7.0,8.0,96,0.00,,,0.00,weatherlink.com 1.10,2013-03-19 17:35:00,
2013-03-19 13:50:00,30.5,30.0,29.80,ENE,77,3.0,5.0,96,0.00,,,0.00,weatherlink.com 1.10,2013-03-19 17:50:00,
2013-03-19 14:05:00,30.2,29.0,29.79,ESE,105,6.0,10.0,96,0.00,,,0.00,weatherlink.com 1.10,2013-03-19 18:05:00,
2013-03-19 14:20:00,30.2,29.0,29.82,East,82,6.0,6.0,96,0.00,,,0.00,weatherlink.com 1.10,2013-03-19 18:20:00,
2013-03-19 14:35:00,30.1,29.0,29.84,North,356,0.0,3.0,96,0.00,,,0.00,weatherlink.com 1.10,2013-03-19 18:35:00,
2013-03-19 14:50:00,29.8,29.0,29.83,East,79,0.0,0.0,96,0.00,,,0.00,weatherlink.com 1.10,2013-03-19 18:50:00,
2013-03-19 15:06:00,29.7,29.0,29.81,ENE,60,0.0,0.0,97,0.00,,,0.00,weatherlink.com 1.10,2013-03-19 19:06:00,
2013-03-19 15:20:00,29.5,29.0,29.80,ENE,75,0.0,0.0,97,0.00,,,0.00,weatherlink.com 1.10,2013-03-19 19:20:00,
2013-03-19 15:35:00,29.5,29.0,29.79,ENE,77,0.0,0.0,97,0.00,,,0.00,weatherlink.com 1.10,2013-03-19 19:35:00,
2013-03-19 15:51:00,29.4,29.0,29.77,East,84,0.0,0.0,97,0.00,,,0.00,weatherlink.com 1.10,2013-03-19 19:51:00,
2013-03-19 16:06:00,29.3,29.0,29.74,East,82,0.0,0.0,97,0.00,,,0.00,weatherlink.com 1.10,2013-03-19 20:06:00,
2013-03-19 16:21:00,29.1,28.0,29.70,ESE,110,0.0,0.0,97,0.00,,,0.00,weatherlink.com 1.10,2013-03-19 20:21:00,
2013-03-19 16:36:00,29.0,28.0,29.69,ESE,112,0.0,0.0,97,0.00,,,0.00,weatherlink.com 1.10,2013-03-19 20:36:00,
2013-03-19 16:51:00,29.0,28.0,29.69,ENE,68,0.0,0.0,97,0.00,,,0.00,weatherlink.com 1.10,2013-03-19 20:51:00,
2013-03-19 17:06:00,28.9,28.0,29.69,East,96,0.0,0.0,97,0.00,,,0.00,weatherlink.com 1.10,2013-03-19 21:06:00,
2013-03-19 17:21:00,28.7,28.0,29.69,ENE,60,0.0,0.0,97,0.00,,,0.00,weatherlink.com 1.10,2013-03-19 21:21:00,
2013-03-19 17:36:00,28.3,28.0,29.70,ENE,70,0.0,0.0,97,0.00,,,0.00,weatherlink.com 1.10,2013-03-19 21:36:00,
2013-03-19 17:51:00,28.1,27.0,29.69,ENE,77,0.0,0.0,97,0.00,,,0.00,weatherlink.com 1.10,2013-03-19 21:51:00,
2013-03-19 18:06:00,28.0,27.0,29.69,ENE,59,0.0,0.0,97,0.00,,,0.00,weatherlink.com 1.10,2013-03-19 22:06:00,
2013-03-19 18:52:00,27.3,26.0,29.68,ESE,105,0.0,0.0,96,0.00,,,0.00,weatherlink.com 1.10,2013-03-19 22:52:00,
2013-03-19 19:36:00,26.5,26.0,29.70,NE,56,0.0,0.0,96,0.00,,,0.00,weatherlink.com 1.10,2013-03-19 23:36:00,
2013-03-19 20:21:00,25.2,24.0,29.70,ENE,63,0.0,0.0,96,0.00,,,0.00,weatherlink.com 1.10,2013-03-20 00:21:00,
2013-03-19 20:51:00,24.6,24.0,29.68,NE,56,0.0,0.0,96,0.00,,,0.00,weatherlink.com 1.10,2013-03-20 00:51:00,
2013-03-19 21:06:00,24.2,23.0,29.68,NNE,23,0.0,0.0,95,0.00,,,0.00,weatherlink.com 1.10,2013-03-20 01:06:00,
2013-03-19 21:21:00,24.0,23.0,29.70,NNE,24,0.0,0.0,95,0.00,,,0.00,weatherlink.com 1.10,2013-03-20 01:21:00,
2013-03-19 21:37:00,23.7,22.0,29.71,NNW,335,0.0,0.0,94,0.00,,,0.00,weatherlink.com 1.10,2013-03-20 01:37:00,
2013-03-19 21:51:00,23.3,22.0,29.70,ENE,63,0.0,0.0,93,0.00,,,0.00,weatherlink.com 1.10,2013-03-20 01:51:00,
2013-03-19 22:06:00,23.0,22.0,29.71,NW,305,0.0,0.0,94,0.00,,,0.00,weatherlink.com 1.10,2013-03-20 02:06:00,
2013-03-19 22:21:00,22.9,21.0,29.70,NNW,339,0.0,0.0,93,0.00,,,0.00,weatherlink.com 1.10,2013-03-20 02:21:00,
2013-03-19 22:36:00,22.6,21.0,29.71,NNE,20,0.0,0.0,94,0.00,,,0.00,weatherlink.com 1.10,2013-03-20 02:36:00,
2013-03-19 22:51:00,22.3,21.0,29.71,NNE,20,0.0,0.0,95,0.00,,,0.00,weatherlink.com 1.10,2013-03-20 02:51:00,
2013-03-19 23:06:00,22.1,21.0,29.71,NW,314,0.0,0.0,95,0.00,,,0.00,weatherlink.com 1.10,2013-03-20 03:06:00,
2013-03-19 23:21:00,22.0,21.0,29.71,NW,326,0.0,0.0,95,0.00,,,0.00,weatherlink.com 1.10,2013-03-20 03:21:00,
2013-03-19 23:36:00,22.0,21.0,29.70,NNE,13,0.0,0.0,95,0.00,,,0.00,weatherlink.com 1.10,2013-03-20 03:36:00,
2013-03-19 23:51:00,22.0,21.0,29.70,NW,321,0.0,0.0,95,0.00,,,0.00,weatherlink.com 1.10,2013-03-20 03:51:00,